Location: Atherton
(17.2661°S, 145.4859°E)
Time: 02:18:27
(UTC+10:00)

S-56A Canister/Altair - All Passes

Search period start: 24 June 2025 00:00
Search period end: 04 July 2025 00:00
Orbit: 632 x 2486 km, 38.9° (Epoch: 23 June)

Date Brightness Start Highest point End Pass type
(mag) Time Alt. Az. Time Alt. Az. Time Alt. Az.
24 Jun - 10:28:09 10° NNW 10:38:45 34° NE 10:46:20 10° E daylight
24 Jun - 12:33:34 10° WNW 12:43:50 69° SW 12:50:31 10° SE daylight
24 Jun - 14:43:58 10° WSW 14:48:16 16° SSW 14:51:49 10° S daylight
24 Jun - 18:58:28 10° S 19:00:23 12° SSE 19:02:21 10° SE visible
24 Jun - 20:59:31 10° SW 21:04:15 83° SE 21:10:34 10° NE night (unlit)
24 Jun - 23:04:51 10° WNW 23:08:31 16° NW 23:12:58 10° N night (unlit)
25 Jun - 09:52:59 10° NNW 10:03:32 30° NE 10:11:23 10° E daylight
25 Jun - 11:57:47 10° NW 12:08:58 82° SW 12:16:11 10° SE daylight
25 Jun - 14:07:37 10° WSW 14:13:27 21° SSW 14:17:59 10° SSE daylight
25 Jun - 20:25:14 10° SW 20:29:45 63° SE 20:35:27 10° ENE visible
25 Jun - 22:29:51 10° W 22:33:43 19° NW 22:38:30 10° N night (unlit)
26 Jun - 09:17:55 10° NNW 09:28:15 27° NE 09:36:15 10° E daylight
26 Jun - 11:22:01 10° NW 11:34:01 86° NE 11:41:47 10° SE daylight
26 Jun - 13:31:19 10° W 13:38:38 27° SSW 13:44:00 10° SSE daylight
26 Jun - 19:50:57 10° SW 19:55:16 47° SE 20:00:22 10° ENE visible
26 Jun - 21:55:01 10° W 21:58:59 23° NW 22:03:59 10° NNE night (unlit)
27 Jun - 08:43:00 10° N 08:52:53 23° NE 09:00:53 10° E daylight
27 Jun - 10:46:19 10° NW 10:58:57 75° NE 11:07:18 10° ESE daylight
27 Jun - 12:55:02 10° W 13:03:45 33° SW 13:09:54 10° SSE daylight
27 Jun - 19:16:40 10° SSW 19:20:46 35° SE 19:25:17 10° E visible
27 Jun - 21:20:16 10° W 21:24:19 27° NW 21:29:24 10° NNE night (unlit)
28 Jun - 08:08:17 10° N 08:17:28 20° NE 08:25:13 10° E daylight
28 Jun - 10:10:40 10° NW 10:23:47 65° NE 10:32:42 10° ESE daylight
28 Jun - 12:18:48 10° WNW 12:28:51 41° SW 12:35:44 10° SE daylight
28 Jun - 14:31:55 10° SW 14:34:19 12° SSW 14:36:30 10° S daylight
28 Jun - 18:42:23 10° SSW 18:46:14 27° SSE 18:50:12 10° E visible
28 Jun - 20:45:35 10° WSW 20:49:44 34° NW 20:54:49 10° NNE visible
29 Jun - 07:33:53 10° N 07:41:58 17° NE 07:49:09 10° ENE daylight
29 Jun - 09:35:07 10° NW 09:48:31 57° NE 09:57:59 10° ESE daylight
29 Jun - 11:42:36 10° WNW 11:53:53 49° SW 12:01:28 10° SE daylight
29 Jun - 13:54:59 10° SW 13:59:19 15° SSW 14:02:57 10° S daylight
29 Jun - 18:08:04 10° SSW 18:11:38 21° SSE 18:15:06 10° E daylight
29 Jun - 20:10:58 10° WSW 20:15:13 44° NW 20:20:13 10° NNE visible
30 Jun - 06:59:57 10° NNE 07:06:27 14° NE 07:12:28 10° ENE daylight
30 Jun - 08:59:40 10° NNW 09:13:12 50° NE 09:23:09 10° ESE daylight
30 Jun - 11:06:28 10° WNW 11:18:50 59° SW 11:27:08 10° SE daylight
30 Jun - 13:18:16 10° WSW 13:24:18 19° SSW 13:29:04 10° SSE daylight
30 Jun - 17:33:42 10° SSW 17:36:58 18° SSE 17:40:02 10° ESE daylight
30 Jun - 19:36:23 10° WSW 19:40:45 59° NW 19:45:36 10° NE visible
01 Jul - 06:27:10 10° NNE 06:30:54 11° NE 06:34:29 10° NE visible
01 Jul - 08:24:20 10° NNW 08:37:48 44° NE 08:48:10 10° ESE daylight
01 Jul - 10:30:24 10° WNW 10:43:41 68° SW 10:52:42 10° SE daylight
01 Jul - 12:41:37 10° WSW 12:49:15 23° SSW 12:55:01 10° SSE daylight
01 Jul - 16:59:13 10° SSW 17:02:13 15° SSE 17:04:57 10° ESE daylight
01 Jul - 19:01:48 10° SW 19:06:18 80° NW 19:11:00 10° NE visible
02 Jul - 07:49:09 10° NNW 08:02:19 39° NE 08:13:00 10° ESE daylight
02 Jul - 09:54:25 10° NW 10:08:27 78° SW 10:18:11 10° SE daylight
02 Jul - 12:05:01 10° W 12:14:08 28° SSW 12:20:50 10° SSE daylight
02 Jul - 14:18:54 10° SSW 14:20:47 11° S 14:22:31 10° S daylight
02 Jul - 16:24:36 10° SSW 16:27:24 14° SSE 16:29:55 10° SE daylight
02 Jul - 18:27:13 10° SW 18:31:52 76° SE 18:36:23 10° ENE visible
03 Jul - 07:14:07 10° NNW 07:26:49 34° NE 07:37:37 10° E daylight
03 Jul - 09:18:34 10° NW 09:33:07 88° SW 09:43:34 10° SE daylight
03 Jul - 11:28:27 10° W 11:38:59 33° SSW 11:46:35 10° SSE daylight
03 Jul - 13:42:02 10° SW 13:45:39 13° SSW 13:48:47 10° SSE daylight
03 Jul - 15:49:46 10° SSW 15:52:30 13° SSE 15:54:57 10° SE daylight
03 Jul - 17:52:35 10° SW 17:57:24 56° SE 18:01:45 10° ENE daylight
03 Jul - 19:58:31 10° WNW 20:00:41 13° NW 20:02:57 10° N visible
